Location: Vinland
(47.7731°N, 122.6974°W)
Time: 01:01:58
(UTC+00:00)

Transit 4A - Pass Details

Date: 06 April 2023
Orbit: 864 x 979 km, 66.8° (Epoch: 29 May)

Event Time Altitude Azimuth Distance (km) Brightness Sun altitude
Exits shadow 11:06:01 21° 160° (SSE) 1,873 9.3 -23.8°
Maximum altitude 11:09:03 34° 111° (ESE) 1,421 9.1 -23.4°
Drops below altitude 10° 11:14:17 10° 49° (NE) 2,569 11.3 -22.8°
Sets 11:17:02 0° 41° (NE) 3,531 12.4 -22.4°
